Weather History for Needles, CA

Change the Weather History Date:

Tuesday, June 10, 2014

  Actual Average Record
Temperature  
Mean Temperature 96 °F -  
Max Temperature 109 °F 99 °F 113 °F (1985)
Min Temperature 84 °F 72 °F 59 °F (1954)
Cooling Degree Days 32    
Growing Degree Days 46 (Base 50)    
Moisture  
Dew Point 33 °F    
Average Humidity 11    
Maximum Humidity 20    
Minimum Humidity 4    
Precipitation  
Precipitation 0.00 in - - ()
Sea Level Pressure  
Sea Level Pressure 29.55 in    
Wind  
Wind Speed 10 mph (SSW)    
Max Wind Speed 24 mph    
Max Gust Speed 43 mph    
Visibility 10 miles    
Events      
Averages and records for this station are not official NWS values.
T = Trace of Precipitation, MM = Missing Value Source: NWS Daily Summary

Daily Weather History Graph

Daily Weather History Graph

Search for Another Location

Airport:

Trip Planner

Search our weather history database for the weather conditions in past years. The results will help you decide how hot, cold, wet, or windy it might be!

Date:

Astronomy

Jun. 10, 2014 Rise Set
Actual Time 5:24 AM PDT 7:51 PM PDT
Civil Twilight 4:55 AM PDT 8:20 PM PDT
Nautical Twilight 4:18 AM PDT 8:57 PM PDT
Astronomical Twilight 3:39 AM PDT 9:37 PM PDT
Moon 5:26 PM PDT (6/10) 3:26 AM PDT (6/10)
Length of Visible Light 15h 25m
Length of Day
14h 26m
Waxing Gibbous, 93% of the Moon is Illuminated
Jun 10
Waxing Gibbous
Jun 12
Full
Jun 19
Last Quarter
Jun 27
New
Jul 5
First Quarter

Hourly Weather History & Observations

Time (PDT) Temp. Dew Point Humidity Pressure Visibility Wind Dir Wind Speed Gust Speed Precip Events Conditions
12:56 AM 95.0 °F 35.1 °F 12% 29.54 in 10.0 mi Variable 3.5 mph - N/A   Clear
2:56 AM 89.1 °F 36.0 °F 15% 29.55 in 10.0 mi WSW 8.1 mph - N/A   Clear
3:56 AM 86.0 °F 36.0 °F 17% 29.56 in 10.0 mi WSW 11.5 mph - N/A   Clear
5:56 AM 84.0 °F 37.9 °F 19% 29.58 in 10.0 mi Calm Calm - N/A   Clear
6:56 AM 88.0 °F 42.1 °F 20% 29.59 in 10.0 mi SE 5.8 mph - N/A   Clear
7:56 AM 91.0 °F 43.0 °F 19% 29.60 in 10.0 mi Calm Calm - N/A   Clear
8:56 AM 97.0 °F 43.0 °F 16% 29.60 in 10.0 mi East 6.9 mph - N/A   Clear
9:56 AM 100.0 °F 45.0 °F 15% 29.60 in 10.0 mi ESE 8.1 mph - N/A   Clear
11:56 AM 105.1 °F 44.1 °F 13% 29.59 in 10.0 mi SSW 18.4 mph 27.6 mph N/A   Clear
12:56 PM 107.1 °F 41.0 °F 11% 29.57 in 10.0 mi SSW 15.0 mph 28.8 mph N/A   Clear
1:56 PM 109.0 °F 35.1 °F 8% 29.55 in 10.0 mi SSW 20.7 mph 31.1 mph N/A   Clear
2:56 PM 109.9 °F 32.0 °F 7% 29.53 in 10.0 mi South 11.5 mph 29.9 mph N/A   Clear
3:56 PM 109.9 °F 19.9 °F 4% 29.51 in 10.0 mi South 17.3 mph 34.5 mph N/A   Clear
4:56 PM 107.1 °F 23.0 °F 5% 29.51 in 10.0 mi SSW 21.9 mph 42.6 mph N/A   Clear
5:56 PM 105.1 °F 27.0 °F 6% 29.50 in 10.0 mi SSW 24.2 mph 28.8 mph N/A   Clear
6:56 PM 102.9 °F 19.0 °F 5% 29.51 in 10.0 mi SSW 15.0 mph 26.5 mph N/A   Clear
7:56 PM 100.0 °F 15.1 °F 5% 29.52 in 10.0 mi SSW 16.1 mph - N/A   Mostly Cloudy
8:56 PM 97.0 °F 23.0 °F 7% 29.53 in 10.0 mi SSW 13.8 mph - N/A   Overcast
9:56 PM 96.1 °F 28.9 °F 9% 29.55 in 10.0 mi SSW 13.8 mph - N/A   Overcast
10:56 PM 93.9 °F 32.0 °F 11% 29.55 in 10.0 mi SSW 15.0 mph - N/A   Partly Cloudy
11:56 PM 93.0 °F 33.1 °F 12% 29.55 in 10.0 mi SSW 13.8 mph - N/A   Clear